Location: Cheching
(60.0667°N, 164.2167°W)
Time: 00:36:45
(UTC+00:00)

DX 1 - Pass Details

Date: 29 January 2021
Orbit: 618 x 631 km, 98.5° (Epoch: 07 March)

Event Time Altitude Azimuth Distance (km) Brightness Sun altitude
Rises 15:53:11 0° 147° (SSE) 2,908 ? -24.9°
Reaches altitude 10° 15:55:23 10° 143° (SE) 2,002 ? -24.6°
Maximum altitude 15:59:39 57° 65° (ENE) 740 ? -24.1°
Enters shadow 16:03:15 14° 349° (N) 1,734 ? -23.6°
